Flag for U.S.A. Weather past 2 weeks in Atlantic City, New Jersey, U.S.A.

43 °F

Low clouds.

Feels Like: 37 °F
Forecast: 44 / 49 °F
Wind: 10 mph from North

Location: Atlantic City International Airport

Current Time: Nov 29, 2015 at 12:50:10 PM

Latest Report: Nov 29, 2015 at 11:54 AM

Visibility: 10 mi

Pressure: 30.22 "Hg

Humidity: 89%

Dew point: 40 °F

Location of Atlantic CityLocation

Historic Weather in Atlantic City — Graph


Atlantic City temperature yesterday

Maximum temperature yesterday: 68 °F (at 11:54 AM)
Minimum temperature yesterday: 50 °F (at 5:54 AM)
Average temperature yesterday: 57 °F

Past Weeks' High & Low Weather Summary

High69 °F (Nov 16, 1:54 PM)97% (Nov 19, 9:01 PM)30.80 "Hg (Nov 19, 9:01 PM)
Low23 °F (Nov 24, 5:54 AM)27% (Nov 16, 1:54 PM)29.88 "Hg (Nov 22, 1:54 AM)
Average49 °F68%30.30 "Hg
* Reported Nov 14 10:54 AM — Nov 29 10:54 AM, Atlantic City, Weather by CustomWeather, © 2015

Note: Actual official high and low records may vary slightly from our data, if they occured in-between our weather recording intervals... More about our weather records


Atlantic City weather history for previous 24 hours

Time TempWeatherWind HumidityBarometerVisibility
10:54 AM
Sun, Nov 29
43 °FMostly cloudy.7 mph89%30.22 "Hg10 mi
9:54 AM42 °FLow clouds.7 mph92%30.23 "Hg10 mi
8:54 AM42 °FLight rain. Overcast.7 mph92%30.24 "Hg7 mi
7:54 AM43 °FLight rain. Mostly cloudy.9 mph89%30.22 "Hg8 mi
6:54 AM43 °FLight rain. Mostly cloudy.9 mph93%30.21 "Hg7 mi
5:54 AM44 °FLight rain. Overcast.7 mph93%30.18 "Hg7 mi
4:54 AM45 °FLight rain. Fog.6 mph97%30.18 "Hg4 mi
3:54 AM46 °FLight rain. Fog.8 mph93%30.18 "Hg5 mi
2:54 AM47 °FMostly cloudy.6 mph93%30.18 "Hg8 mi
1:54 AM48 °FLow clouds.7 mph93%30.18 "Hg9 mi
12:54 AM49 °FMostly cloudy.9 mph93%30.18 "Hg10 mi
11:54 PM
Sat, Nov 28
51 °FFog.7 mph96%30.17 "Hg6 mi
11:04 PM51 °FFog.10 mph92%30.18 "Hg6 mi
10:54 PM52 °FFog.10 mph89%30.17 "Hg5 mi
10:01 PM56 °FLow clouds.3 mph87%30.18 "Hg10 mi
8:54 PM56 °FOvercast.5 mph87%30.15 "Hg10 mi
7:54 PM58 °FOvercast.3 mph78%30.14 "Hg10 mi
6:54 PM60 °FOvercast.7 mph72%30.14 "Hg10 mi
5:54 PM60 °FMostly cloudy.7 mph75%30.13 "Hg10 mi
4:54 PM63 °FMostly cloudy.6 mph68%30.13 "Hg10 mi
3:54 PM64 °FPartly sunny.3 mph65%30.13 "Hg10 mi
2:54 PM66 °FMostly cloudy.5 mph59%30.11 "Hg10 mi
1:54 PM67 °FOvercast.8 mph57%30.11 "Hg10 mi
12:54 PM68 °FOvercast.7 mph55%30.12 "Hg10 mi
Weather by CustomWeather, © 2015

See weather overviewHow to use our weather pages